Probability
2 1 0 0 0 1 1 1 0 1 0 0 0 0 0 0 0 0 0 0 0 0 0 0 0 0 0 0 0 0 0 0 0 0 0 0 0 0 0 0 0 0 0
3 2 1 0 0 1 2 1 1 1 1 0 0 0 0 0 0 1 1 0 0 0 0 0 0 0 0 0 0 0 0 0 0 0 0 0 0 0 0 0 0 0 0
4 3 2 1 1 2 3 1 1 2 1 0 0 0 0 0 0 1 1 0 0 0 0 0 0 0 0 0 0 0 0 0 0 0 0 0 0 0 0 0 0 0 0
5 4 3 1 1 2 2 1 1 2 2 1 0 0 0 0 0 1 1 0 0 0 0 0 0 0 0 0 0 0 0 0 0 0 0 0 0 0 0 0 0 0 0
5 4 3 3 3 3 2 0 0 1 1 1 0 0 0 0 1 2 1 0 0 0 0 0 0 0 0 0 0 0 0 0 0 0 0 0 0 0 0 0 0 0 0
7 5 5 5 4 3 2 0 0 0 0 0 0 0 0 1 2 2 1 0 0 0 0 0 0 0 0 0 0 0 0 0 0 0 0 0 0 0 0 0 0 0 0
10 8 7 7 5 3 1 0 0 0 0 0 0 0 0 1 1 1 0 0 0 0 0 0 0 0 0 0 0 0 0 0 0 0 0 0 0 0 0 0 0 0 0
14 11 10 8 5 3 2 1 1 0 0 0 0 0 0 0 0 0 0 0 0 0 0 0 0 0 0 0 0 0 0 0 0 0 0 0 0 0 0 0 0 0 0
17 16 14 11 6 4 4 4 2 1 0 0 0 0 0 0 0 0 0 0 0 0 0 0 0 0 0 0 0 0 0 0 0 0 0 0 0 0 0 0 0 0 0
18 18 17 14 8 5 6 6 4 2 0 0 0 0 0 0 0 0 0 0 0 0 0 0 0 0 0 0 0 0 0 0 0 0 0 0 0 0 0 0 0 0 0
19 17 16 14 10 7 7 6 5 3 1 0 0 0 0 0 0 0 0 0 0 0 0 0 0 0 0 0 0 0 0 0 0 0 0 0 0 0 0 0 0 0 0
20 15 14 14 11 8 8 7 5 3 2 2 1 1 0 0 0 0 0 0 0 0 0 0 0 0 0 0 0 0 0 0 0 0 0 0 0 0 0 0 0 0 0
19 16 15 14 12 9 8 7 5 3 3 3 2 1 0 0 0 0 0 0 0 0 0 0 0 0 0 0 0 0 0 0 0 0 0 0 0 0 0 0 0 0 0
19 18 17 15 13 11 8 6 5 4 3 3 3 2 1 0 0 0 0 0 0 0 0 0 0 0 1 1 1 0 0 0 0 0 0 0 0 0 0 0 0 0 0
20 19 17 16 14 12 9 7 5 4 3 3 3 2 1 0 0 0 0 0 0 0 0 0 0 0 1 1 1 0 0 0 0 0 0 0 0 0 0 0 0 0 0
21 19 17 16 14 12 9 7 5 4 3 3 3 2 1 0 0 0 0 0 0 0 0 0 0 0 0 0 0 0 0 0 0 0 0 0 0 0 0 0 0 0 0
22 20 17 15 13 11 10 7 6 5 4 3 2 1 0 0 0 0 0 0 0 0 0 0 0 1 0 0 0 0 0 0 1 0 0 0 0 0 0 0 0 0 0
20 19 17 15 13 12 10 8 6 5 4 2 1 0 0 0 0 0 0 0 0 0 0 0 0 1 1 1 1 1 0 0 0 0 0 0 0 0 0 0 0 0 0
18 18 17 15 13 12 10 8 7 6 3 1 0 0 0 0 0 0 0 0 0 0 0 0 0 0 1 2 4 4 2 1 1 0 0 0 0 0 0 0 0 0 0
18 17 17 15 13 11 10 8 7 5 2 0 0 0 0 0 0 0 0 0 0 0 0 0 0 0 1 2 5 5 3 2 2 1 1 0 0 0 0 0 0 0 0
20 18 16 13 11 9 8 7 6 4 1 0 0 0 0 0 0 0 0 0 0 0 0 0 0 0 1 1 3 3 2 2 2 2 2 1 0 1 1 1 0 0 0
22 20 16 12 8 5 4 3 3 2 1 1 1 1 0 0 0 0 0 0 0 0 0 0 0 0 0 0 1 2 2 2 3 3 3 1 1 2 2 1 0 0 0
26 24 19 12 6 3 1 0 1 1 3 4 3 2 1 0 0 0 0 0 0 0 0 0 0 0 0 0 2 3 4 4 4 5 4 3 3 3 2 1 0 0 0
34 31 24 16 8 3 0 0 0 1 3 5 4 3 2 1 0 0 0 0 1 1 0 0 0 0 0 1 3 4 5 5 5 5 5 4 3 3 3 2 1 0 0
41 36 27 19 14 7 2 0 0 0 2 3 4 2 1 1 0 0 0 1 2 2 2 1 1 0 0 0 1 3 4 4 3 3 2 2 2 2 3 3 3 2 1
45 37 27 20 18 12 4 0 0 0 0 2 4 3 1 1 0 0 1 2 3 3 3 3 2 1 0 0 0 1 2 3 2 1 1 1 1 1 2 3 3 3 2
Wind_Speed
3 3 2 2 2 2 2 1 1 2 2 1 2 3 4 5 5 7 6 10 10 9 9 9 9 9 8 7 7 6 6 5 5 4 4 5 5 5 5 5 6 6 5
3 3 2 1 1 2 1 1 2 2 1 1 1 2 2 3 4 6 7 7 9 9 9 9 9 8 8 7 6 6 5 5 5 4 4 4 5 5 5 5 5 6 5
4 3 2 2 1 2 2 1 1 1 2 2 1 2 1 2 2 4 6 5 6 8 9 9 9 8 8 8 7 6 6 6 6 5 5 5 5 5 5 5 6 6 6
4 3 3 2 2 2 2 2 0 1 1 1 1 1 1 1 1 3 4 4 5 5 7 10 9 9 9 8 8 8 7 6 7 7 6 6 5 5 5 5 6 6 6
4 2 2 2 2 2 1 2 2 1 0 0 2 2 1 2 1 2 3 4 4 5 5 8 9 8 8 8 8 8 8 8 7 7 7 6 6 5 5 5 6 6 7
4 2 3 3 1 1 1 2 2 2 0 1 1 2 1 2 1 1 2 3 3 5 5 6 5 6 8 7 8 8 8 8 8 8 7 7 7 6 5 5 6 6 7
4 2 2 3 1 2 2 2 2 2 2 1 0 1 1 2 2 2 2 2 3 3 5 6 5 3 4 7 7 7 8 9 9 9 9 8 8 6 6 6 6 6 7
5 5 3 3 3 2 2 1 1 1 2 2 1 1 1 1 1 3 3 3 3 3 4 6 5 4 3 3 4 5 5 6 7 8 8 8 7 7 7 7 8 7 7
4 2 4 2 3 3 3 2 2 2 1 1 1 0 1 1 2 1 1 2 2 2 2 4 4 4 5 4 4 4 4 3 3 4 5 6 7 7 7 7 8 8 8
5 4 4 3 2 2 4 4 3 2 1 1 2 1 1 1 1 2 0 2 3 3 2 3 4 4 5 4 5 6 6 4 3 2 2 2 3 5 5 6 7 8 8
5 5 4 3 2 2 3 2 2 0 1 2 1 2 2 2 2 2 3 3 2 3 3 3 3 3 4 5 5 6 6 5 3 2 1 1 2 3 4 5 6 7 9
4 5 5 4 3 2 3 3 2 2 0 1 2 1 1 1 2 2 2 3 3 3 3 2 2 3 3 4 6 9 7 6 4 2 1 1 1 2 3 4 5 6 7
5 5 5 4 3 3 3 3 2 1 1 0 1 2 2 1 1 1 1 1 3 3 3 3 3 3 3 5 5 9 7 6 5 3 2 2 2 2 3 4 5 6 6
5 6 5 5 4 4 4 3 3 3 2 1 1 1 2 2 2 1 1 1 1 2 3 3 3 3 3 4 6 8 5 8 7 6 5 4 4 4 4 4 5 5 6
6 7 6 6 5 4 4 3 2 2 3 2 2 1 1 1 1 1 1 1 0 0 1 2 2 3 3 4 7 4 4 8 9 8 8 7 6 6 6 6 6 6 6
6 8 7 6 5 5 4 4 3 3 3 2 1 1 1 1 1 1 1 1 1 1 1 1 1 3 2 2 4 2 2 9 12 11 11 10 9 9 8 8 7 7 8
7 8 7 6 6 6 5 3 3 5 4 3 2 2 1 1 2 2 1 1 1 1 1 0 2 3 2 1 1 2 3 5 7 14 14 13 12 11 10 10 10 9 9
8 8 7 7 7 6 5 5 5 5 5 4 3 3 3 2 1 1 2 2 1 2 1 0 0 1 2 3 3 3 5 5 4 9 14 15 14 13 12 12 12 12 11
8 8 7 7 7 7 6 6 5 4 5 5 4 4 3 2 2 1 1 1 1 1 1 1 1 1 2 3 3 4 6 4 6 6 11 13 14 15 15 15 15 14 13
8 8 7 7 7 7 7 6 5 5 4 4 4 4 4 4 3 2 2 1 1 1 1 2 2 2 2 3 2 3 3 2 4 5 3 6 12 16 17 17 16 16 15
10 8 8 7 7 7 8 8 6 7 5 4 4 4 4 4 3 2 1 1 1 1 2 2 3 2 2 1 1 1 3 3 3 3 2 3 4 5 8 13 17 17 17
9 9 8 8 8 9 10 11 7 6 6 6 5 4 4 5 6 5 3 2 1 2 2 2 3 3 3 2 1 2 3 3 4 3 2 4 4 4 4 5 10 15 17
9 8 8 8 8 6 10 12 10 4 4 4 5 5 6 7 9 6 7 8 7 8 7 3 4 5 4 4 3 4 4 4 5 4 4 6 5 6 5 6 7 10 13
8 8 8 8 7 8 12 12 11 6 4 4 5 5 5 4 5 5 5 6 6 7 8 8 7 7 7 4 4 5 5 6 6 6 6 6 6 5 6 4 8 11 13
8 8 8 8 8 8 13 14 12 6 5 6 6 7 6 6 6 6 4 4 4 5 8 10 11 10 10 10 6 3 5 5 7 6 4 4 4 4 4 4 6 10 11
8 8 8 8 8 8 13 15 13 6 6 6 6 7 9 8 8 8 6 5 6 5 5 5 6 9 10 11 12 8 7 6 6 6 4 3 4 4 5 4 4 4 6
Wind_Direction
135 126 126 141 160 139 154 184 137 103 73 55 22 51 62 90 117 119 131 146 147 149 151 153 152 149 147 146 142 139 143 150 155 155 156 153 153 155 158 157 156 153 154
113 114 118 108 112 114 108 120 120 121 115 75 43 49 38 74 107 124 136 149 154 157 159 159 161 161 159 156 152 150 155 159 163 167 168 166 165 169 172 175 174 170 166
129 137 142 185 142 113 121 114 94 131 170 158 144 107 79 67 105 120 138 150 160 168 168 166 166 170 171 171 173 173 179 179 176 179 182 182 181 179 183 188 188 185 181
146 155 147 161 144 137 152 140 189 156 86 103 118 109 111 114 135 144 151 152 155 159 173 175 173 176 182 184 186 187 190 187 184 184 186 190 192 190 190 195 196 196 197
152 156 133 123 161 147 160 175 130 97 106 147 174 167 168 139 138 155 140 145 148 154 163 176 179 181 187 191 195 195 196 191 192 195 197 198 202 201 198 204 207 206 208
154 160 138 142 185 133 129 101 113 125 183 236 238 137 139 128 127 121 168 149 153 167 162 162 171 186 190 190 196 203 204 202 203 207 210 213 214 208 206 212 218 217 217
148 181 146 152 178 131 127 143 148 171 208 188 158 142 136 145 153 166 171 144 155 164 153 154 168 169 175 186 192 202 208 210 212 215 220 222 223 219 216 218 224 227 225
161 178 161 168 147 132 138 146 139 177 222 166 180 159 139 129 203 165 161 161 158 154 152 154 156 157 163 146 168 189 202 214 219 221 224 226 230 231 229 227 227 227 226
164 168 154 150 151 168 159 173 179 199 212 180 183 127 138 150 170 126 151 126 122 127 136 142 149 147 147 136 140 153 162 176 202 216 221 224 229 228 231 233 234 232 230
169 162 155 147 169 157 146 190 175 205 203 225 172 163 154 126 145 137 170 143 146 134 126 132 128 135 131 129 123 128 131 128 135 166 209 223 225 224 226 235 241 241 236
167 166 158 154 165 159 138 123 114 188 235 262 225 178 175 175 200 159 163 166 161 149 153 138 135 135 134 134 135 135 139 136 130 127 145 223 236 233 234 240 251 255 251
170 170 160 158 168 152 134 131 139 172 287 350 352 335 169 186 199 169 155 166 164 154 137 124 138 137 145 134 136 143 150 150 149 147 155 225 263 257 250 254 260 264 264
169 170 157 158 158 143 143 140 152 177 175 93 344 328 346 353 39 55 122 161 150 150 153 172 163 151 144 120 131 151 163 167 171 178 195 226 252 267 269 269 270 271 272
162 152 149 160 160 167 164 154 165 173 141 139 236 2 335 358 2 12 44 104 171 174 169 168 155 147 124 127 153 174 173 181 188 194 207 225 242 255 264 269 272 274 275
155 155 160 164 166 165 153 161 172 157 137 177 207 208 292 327 329 355 8 14 5 201 173 164 148 141 141 136 165 196 172 189 198 205 213 222 230 239 246 255 261 266 269
151 155 163 162 163 162 162 166 167 151 157 179 169 93 15 334 2 333 6 357 5 6 43 105 142 127 102 132 171 237 205 195 207 213 218 222 225 230 235 242 247 254 258
152 159 162 162 167 171 174 184 186 163 180 182 184 152 148 4 4 348 0 10 360 14 45 39 90 108 127 118 176 263 251 214 215 218 220 222 226 230 235 240 243 246 251
164 165 168 169 177 176 174 186 205 175 178 182 192 173 178 185 152 340 347 351 15 41 53 351 14 183 189 199 212 241 265 265 251 223 218 220 225 230 235 239 243 246 248
174 173 174 178 186 176 178 196 203 185 185 183 184 183 185 186 188 209 287 309 314 299 190 245 263 255 224 220 217 242 257 258 272 254 220 220 227 232 235 238 240 243 245
180 180 179 182 187 185 183 192 197 193 192 187 188 188 188 190 187 197 232 246 286 301 288 268 257 245 234 227 211 242 272 255 264 287 253 227 225 230 236 239 241 242 242
187 182 182 185 188 192 194 190 191 192 190 195 196 197 199 187 150 166 232 5 317 298 282 273 269 267 254 257 245 266 285 289 272 274 276 274 248 234 236 241 242 242 241
187 180 185 189 195 205 194 184 189 196 182 193 200 203 199 181 176 186 201 214 229 272 300 308 301 304 310 318 323 305 301 306 299 305 325 300 292 278 260 242 231 228 232
186 183 186 192 199 196 173 170 180 194 194 198 201 206 225 217 192 195 208 223 235 235 228 242 271 282 292 302 321 313 301 296 284 286 291 281 274 271 268 280 261 239 234
184 186 189 193 192 185 175 173 175 195 212 214 214 215 223 236 213 202 211 213 222 225 222 224 238 252 260 267 268 269 274 278 269 264 254 264 265 263 274 270 254 249 243
183 187 188 192 195 184 178 177 174 193 213 223 226 224 221 220 210 198 215 235 246 256 245 235 228 240 249 256 255 270 271 273 278 278 268 268 278 282 279 277 274 267 258
183 188 192 194 196 185 182 184 185 200 213 220 222 225 224 219 207 201 208 224 243 253 271 273 254 253 251 251 242 230 241 255 269 278 273 278 288 299 292 275 278 285 275